アトラス彗星

C/2018 E1 ( ATLAS )

English version
Home page
Updated on May 20, 2019

---------------------------------------------------------------------

・ プロフィール

発見日 2018年3月10日
発見光度 16.8等
発見者 Asteroid Terrestrial-impact Last Alert System (ATLAS) search program

・ 写真集

・ 軌道要素

Epoch 2018 May 2.0 TT = JDT 2458240.5
T 2018 Apr. 17.32339 TT                                 MPCW
q   2.7054400            (2000.0)            P               Q
z  +0.0183551      Peri.  299.47221     -0.26852666     -0.80983424
 +/-0.0000000      Node   146.84066     +0.77844281     +0.13650401
e   0.9503415      Incl.   72.47970     -0.56738014     +0.57055689
From 313 observations 2015 Aug. 11-2019 Apr. 1, mean residual 0".4.

・ 星図

・ 光度変化

        m1 = 10.5 + 5 logΔ +  8.5 log r(t - 50)  [ ,0]  (              〜2018年 4月17日)
        m1 = 10.0 + 5 logΔ + 10.0 log r          [0, ]  (2018年 4月17日〜              )

---------------------------------------------------------------------

軌道要素はM.P.E.C. 2019-J142に掲載されたものです。
星図はステラナビゲータ Ver.10 (アストロアーツ) で作成したものです。
光度グラフはComet for Windowsで作成したものです。

---------------------------------------------------------------------

Copyright(C) Seiichi Yoshida (comet@aerith.net). All rights reserved.